Regional Weather Roundup
Issued by NWS Goodland, KS

Home | Current Version | Previous Version | Text Only | Print | Product List | Glossary Off
Versions: 1 2 3 4 5 6 7 8 9 10 11 12 13 14 15 16 17 18 19 20 21 22 23 24 25 26 27 28 29 30 31 32 33 34 35 36 37 38 39 40 41 42 43 44 45 46 47 48 49 50

000
ASUS43 KGLD 270659
RWRGLD

GOODLAND FORECAST AREA HOURLY WEATHER ROUNDUP
NATIONAL WEATHER SERVICE GOODLAND KS
1200 AM MST MON FEB 27 2017

...OFFICIAL OBSERVATIONS...

CITY           SKY/WX    TMP DP  RH WIND       PRES   REMARKS
GOODLAND KS    CLEAR     22   8  55 S15       29.84R WCI   9
HILL CITY KS   CLEAR     17   8  67 E3        29.92S
IMPERIAL NEB   CLEAR     21  11  65 SE3       29.86F
MCCOOK NEB     CLEAR     20  10  65 CALM      29.89F
AKRON CO       CLEAR     19  10  68 SE13      29.78F WCI   6
BURLINGTON CO  CLEAR     23   9  55 S17       29.83R WCI   9
LIMON CO       CLOUDY    22   7  52 SE9       29.79S
$$

...UNOFFICIAL OBSERVATIONS...

CITY           SKY/WX    TMP DP  RH WIND       PRES   REMARKS
LENORA KS        N/A     26  32 100 SE7         N/A
SHARON SPRINGS   N/A     26  13  56 SE12        N/A  WCI  16
TRENTON NEB      N/A     21  32 100 CALM        N/A
KIT CARSON CO    N/A     24   8  51 CALM        N/A
YUMA CO        FAIR      16  10  79 S6        29.82S
$$




USA.gov is the U.S. government's official web portal to all federal, state and local government web resources and services.